Location: ????????
(37.9452°N, 23.1472°E)
Time: 03:21:09
(UTC+00:00)

ATLAS 3B R/B - Pass Details

Date: 18 April 2024
Orbit: 943 x 1251 km, 63.8° (Epoch: 20 May)

Event Time Altitude Azimuth Distance (km) Brightness Sun altitude
Rises 18:24:52 0° 222° (SW) 3,807 5.8 -15.2°
Reaches altitude 10° 18:27:27 10° 225° (SW) 2,899 5.2 -15.7°
Maximum altitude 18:34:18 63° 306° (NW) 1,258 3.3 -16.8°
Drops below altitude 10° 18:41:43 10° 27° (NNE) 3,131 5.2 -18.1°
Sets 18:44:37 0° 31° (NNE) 4,132 5.8 -18.6°
